TimeEDT,TemperatureF,Dew PointF,Humidity,Sea Level PressureIn,VisibilityMPH,Wind Direction,Wind SpeedMPH,Gust SpeedMPH,PrecipitationIn,Events,Conditions,WindDirDegrees,DateUTC
12:58 AM,78.1,74.7,89,30.09,10.0,South,6.9,-,N/A,,Clear,180,2013-07-06 04:58:00
1:58 AM,76.1,74.5,95,30.09,10.0,South,4.6,-,N/A,,Clear,180,2013-07-06 05:58:00
2:58 AM,75.0,74.5,98,30.10,10.0,South,3.5,-,N/A,,Clear,170,2013-07-06 06:58:00
3:58 AM,73.6,73.4,99,30.09,10.0,South,3.5,-,N/A,,Clear,170,2013-07-06 07:58:00
4:58 AM,73.0,72.7,99,30.10,10.0,South,2.3,-,N/A,,Clear,170,2013-07-06 08:58:00
5:58 AM,73.2,73.0,99,30.12,10.0,South,2.3,-,N/A,,Clear,190,2013-07-06 09:58:00
6:58 AM,77.0,75.4,95,30.12,10.0,South,4.6,-,N/A,,Clear,180,2013-07-06 10:58:00
7:58 AM,80.2,74.7,83,30.12,10.0,SSW,4.6,-,N/A,,Clear,200,2013-07-06 11:58:00
8:58 AM,82.6,74.1,75,30.10,10.0,SW,3.5,-,N/A,,Clear,230,2013-07-06 12:58:00
9:46 AM,84.2,75.2,74,30.08,10.0,WSW,5.8,-,N/A,,Mostly Cloudy,240,2013-07-06 13:46:00
9:53 AM,84.2,73.4,70,30.08,10.0,WSW,5.8,-,N/A,,Mostly Cloudy,250,2013-07-06 13:53:00
9:55 AM,84.2,73.4,70,30.08,10.0,WSW,6.9,-,N/A,,Mostly Cloudy,240,2013-07-06 13:55:00
9:58 AM,84.4,73.9,71,30.09,10.0,West,4.6,-,N/A,,Mostly Cloudy,260,2013-07-06 13:58:00
10:09 AM,84.2,73.4,70,30.08,10.0,WSW,8.1,-,N/A,,Mostly Cloudy,250,2013-07-06 14:09:00
10:58 AM,86.7,72.1,62,30.08,10.0,WNW,8.1,-,N/A,,Scattered Clouds,300,2013-07-06 14:58:00
11:58 AM,87.8,71.4,58,30.08,10.0,NW,9.2,-,N/A,,Mostly Cloudy,310,2013-07-06 15:58:00
12:58 PM,88.2,71.4,57,30.07,10.0,WNW,10.4,-,N/A,,Scattered Clouds,300,2013-07-06 16:58:00
1:58 PM,89.2,70.9,54,30.06,10.0,WNW,10.4,-,N/A,,Scattered Clouds,300,2013-07-06 17:58:00
2:58 PM,89.2,70.5,54,30.05,10.0,NW,12.7,-,N/A,,Mostly Cloudy,310,2013-07-06 18:58:00
4:58 PM,89.2,70.5,54,30.04,10.0,NW,10.4,-,N/A,,Partly Cloudy,310,2013-07-06 20:58:00
5:58 PM,89.4,70.2,53,30.02,10.0,WNW,9.2,-,N/A,,Partly Cloudy,290,2013-07-06 21:58:00
6:58 PM,87.8,70.3,56,30.01,10.0,WNW,9.2,-,N/A,,Clear,300,2013-07-06 22:58:00
7:58 PM,84.2,71.6,66,30.02,10.0,NNW,4.6,-,N/A,,Clear,330,2013-07-06 23:58:00
8:58 PM,80.8,71.4,73,30.02,10.0,Calm,Calm,-,N/A,,Clear,0,2013-07-07 00:58:00
9:18 PM,78.8,71.6,78,30.02,10.0,NE,2.3,-,N/A,,Light Drizzle,50,2013-07-07 01:18:00
9:28 PM,77.0,71.6,83,30.02,10.0,NNE,1.2,-,N/A,,Clear,30,2013-07-07 01:28:00
9:58 PM,73.8,73.2,98,30.04,10.0,ENE,2.3,-,0.00,,Clear,60,2013-07-07 01:58:00
9:59 PM,73.4,73.4,100,30.04,10.0,ENE,2.3,-,N/A,,Light Drizzle,60,2013-07-07 01:59:00
10:08 PM,73.4,73.4,100,30.04,10.0,Calm,Calm,-,N/A,,Clear,0,2013-07-07 02:08:00
10:45 PM,75.2,73.4,94,30.04,10.0,NNE,1.2,-,N/A,,Light Drizzle,20,2013-07-07 02:45:00
10:58 PM,74.8,74.1,98,30.06,10.0,NNE,2.3,-,N/A,,Clear,20,2013-07-07 02:58:00
11:58 PM,72.0,71.8,99,30.06,10.0,Calm,Calm,-,N/A,,Clear,0,2013-07-07 03:58:00